Location: Quesnel
(52.9830°N, 122.4830°W)
Time: 16:19:39
(UTC-08:00)

ISS - All Passes

Search period start: 25 January 2015 00:00
Search period end: 04 February 2015 00:00
Orbit: 402 x 410 km, 51.6° (Epoch: 25 January)

Date Brightness Start Highest point End Pass type
(mag) Time Alt. Az. Time Alt. Az. Time Alt. Az.
25 Jan - 00:57:20 10° SW 01:00:22 34° SSE 01:03:26 10° E night (unlit)
25 Jan - 02:33:21 10° W 02:36:39 69° S 02:39:58 10° E night (unlit)
25 Jan - 04:09:48 10° W 04:13:03 53° SSW 04:16:18 10° ESE visible
25 Jan - 05:46:42 10° W 05:49:07 18° SW 05:51:29 10° SSE visible
26 Jan - 00:06:00 10° SSW 00:08:45 25° SSE 00:11:32 10° E night (unlit)
26 Jan - 01:41:39 10° WSW 01:44:56 62° SSE 01:48:12 10° E night (unlit)
26 Jan - 03:18:02 10° W 03:21:20 63° S 03:24:37 10° ESE night (unlit)
26 Jan - 04:54:41 10° W 04:57:32 26° SSW 05:00:21 10° SSE visible
26 Jan - 23:14:55 10° S 23:17:09 17° SE 23:19:26 10° ESE night (unlit)
27 Jan - 00:49:58 10° WSW 00:53:11 51° SSE 00:56:25 10° E night (unlit)
27 Jan - 02:26:16 10° W 02:29:34 70° S 02:32:52 10° E night (unlit)
27 Jan - 04:02:47 10° W 04:05:52 36° SSW 04:08:57 10° SE night (unlit)
27 Jan - 05:41:07 10° SW 05:41:43 10° SW 05:42:13 10° SSW visible
27 Jan - 22:24:27 10° SSE 22:25:35 11° SE 22:26:47 10° ESE night (unlit)
27 Jan - 23:58:21 10° SW 00:01:27 39° SSE 00:04:34 10° E night (unlit)
28 Jan - 01:34:29 10° W 01:37:46 71° S 01:41:05 10° E night (unlit)
28 Jan - 03:10:56 10° W 03:14:08 48° SSW 03:17:21 10° ESE night (unlit)
28 Jan - 04:48:01 10° WSW 04:50:09 16° SW 04:52:13 10° S visible
28 Jan - 23:06:52 10° SSW 23:09:44 28° SSE 23:12:39 10° E night (unlit)
29 Jan - 00:42:41 10° WSW 00:45:58 65° S 00:49:15 10° E night (unlit)
29 Jan - 02:19:06 10° W 02:22:22 59° S 02:25:38 10° ESE night (unlit)
29 Jan - 03:55:49 10° W 03:58:30 23° SSW 04:01:10 10° SSE night (unlit)
29 Jan - 22:15:35 10° SSW 22:18:04 20° SSE 22:20:35 10° E night (unlit)
29 Jan - 23:50:55 10° WSW 23:54:09 55° SSE 23:57:24 10° E night (unlit)
30 Jan - 01:27:15 10° W 01:30:33 68° S 01:33:50 10° ESE night (unlit)
30 Jan - 03:03:48 10° W 03:06:48 32° SSW 03:09:47 10° SE night (unlit)
30 Jan - 21:24:42 10° S 21:26:24 14° SE 21:28:10 10° ESE night (unlit)
30 Jan - 22:59:12 10° SW 23:02:20 43° SSE 23:05:30 10° E night (unlit)
31 Jan - 00:35:23 10° W 00:38:41 71° S 00:41:59 10° E night (unlit)
31 Jan - 02:11:52 10° W 02:15:01 43° SSW 02:18:11 10° SE night (unlit)
31 Jan - 03:49:14 10° WSW 03:50:58 13° SW 03:52:38 10° S night (unlit)
31 Jan - 22:07:34 10° SW 22:10:33 32° SSE 22:13:33 10° E night (unlit)
31 Jan - 23:43:31 10° WSW 23:46:48 68° S 23:50:06 10° E night (unlit)
01 Feb - 01:19:57 10° W 01:23:12 55° SSW 01:26:26 10° ESE night (unlit)
01 Feb - 02:56:46 10° W 02:59:16 20° SSW 03:01:44 10° SSE night (unlit)
01 Feb - 21:16:07 10° SSW 21:18:47 23° SSE 21:21:28 10° E night (unlit)
01 Feb - 22:51:40 10° WSW 22:54:56 60° SSE 22:58:11 10° E night (unlit)
02 Feb - 00:28:01 10° W 00:31:19 65° S 00:34:36 10° ESE night (unlit)
02 Feb - 02:04:37 10° W 02:07:32 28° SSW 02:10:24 10° SSE night (unlit)
02 Feb - 20:24:58 10° S 20:27:02 16° SE 20:29:10 10° ESE night (unlit)
02 Feb - 21:59:51 10° WSW 22:03:02 48° SSE 22:06:14 10° E night (unlit)
02 Feb - 23:36:06 10° W 23:39:23 71° S 23:42:41 10° E night (unlit)
03 Feb - 01:12:35 10° W 01:15:42 38° SSW 01:18:48 10° SE night (unlit)
03 Feb - 02:50:26 10° WSW 02:51:34 11° SW 02:52:37 10° SSW night (unlit)
03 Feb - 19:34:48 10° SSE 19:35:19 10° SE 19:35:56 10° SE visible
03 Feb - 21:08:06 10° SW 21:11:09 36° SSE 21:14:14 10° E night (unlit)
03 Feb - 22:44:10 10° W 22:47:27 70° S 22:50:44 10° E night (unlit)
